<?xml version="1.0" encoding="UTF-8" standalone="no" ?>
<gpx xmlns="http://www.topografix.com/GPX/1/1" xmlns:xsi="http://www.w3.org/2001/XMLSchema-instance" xsi:schemaLocation="http://www.topografix.com/GPX/1/1 http://www.topografix.com/GPX/1/1/gpx.xsd" version="1.1" creator="VisuGPX - https://www.visugpx.com">
  <metadata>
    <name>2019-03-18-46-mercues-chateau</name>
    <desc><![CDATA[Randonnée de 10,5km pour 350m de denivelé positif; Départ du Chateau de mercues, de beaux sentiers avec de belles vues sur la vallée; Un retour avec en point de mire le chateau vu sous de nouveaux angles]]></desc>
  </metadata>
  <trk>
    <name><![CDATA[2019-03-18i-Mercues-10,5 km, 350m]]></name>
    <trkseg>
      <trkpt lat="44.49667" lon="1.39584">
        <ele>195.9</ele>
        <time>2018-12-05T09:11:43Z</time>
      </trkpt>
      <trkpt lat="44.49653" lon="1.39653">
        <ele>194.9</ele>
        <time>2018-12-05T09:11:43Z</time>
      </trkpt>
      <trkpt lat="44.49614" lon="1.39731">
        <ele>195.7</ele>
        <time>2018-12-05T09:11:43Z</time>
      </trkpt>
      <trkpt lat="44.49574" lon="1.39809">
        <ele>200.6</ele>
        <time>2018-12-05T09:11:43Z</time>
      </trkpt>
      <trkpt lat="44.49554" lon="1.39862">
        <ele>205.3</ele>
        <time>2018-12-05T09:11:43Z</time>
      </trkpt>
      <trkpt lat="44.49545" lon="1.39906">
        <ele>211.2</ele>
        <time>2018-12-05T09:11:43Z</time>
      </trkpt>
      <trkpt lat="44.49539" lon="1.3993">
        <ele>214.7</ele>
        <time>2018-12-05T09:11:43Z</time>
      </trkpt>
      <trkpt lat="44.49527" lon="1.39955">
        <ele>218.1</ele>
        <time>2018-12-05T09:11:43Z</time>
      </trkpt>
      <trkpt lat="44.49523" lon="1.3998">
        <ele>222</ele>
        <time>2018-12-05T09:11:43Z</time>
      </trkpt>
      <trkpt lat="44.49505" lon="1.40002">
        <ele>223.7</ele>
        <time>2018-12-05T09:11:43Z</time>
      </trkpt>
      <trkpt lat="44.495" lon="1.40016">
        <ele>224.2</ele>
        <time>2018-12-05T09:11:43Z</time>
      </trkpt>
      <trkpt lat="44.495" lon="1.40034">
        <ele>225.9</ele>
        <time>2018-12-05T09:11:43Z</time>
      </trkpt>
      <trkpt lat="44.49494" lon="1.4005">
        <ele>225.4</ele>
        <time>2018-12-05T09:11:43Z</time>
      </trkpt>
      <trkpt lat="44.49477" lon="1.40075">
        <ele>223.6</ele>
        <time>2018-12-05T09:11:43Z</time>
      </trkpt>
      <trkpt lat="44.4948" lon="1.40101">
        <ele>223.9</ele>
        <time>2018-12-05T09:11:43Z</time>
      </trkpt>
      <trkpt lat="44.4947" lon="1.40134">
        <ele>219.4</ele>
        <time>2018-12-05T09:11:43Z</time>
      </trkpt>
      <trkpt lat="44.49463" lon="1.40167">
        <ele>216.4</ele>
        <time>2018-12-05T09:11:43Z</time>
      </trkpt>
      <trkpt lat="44.49446" lon="1.4019">
        <ele>211.3</ele>
        <time>2018-12-05T09:11:43Z</time>
      </trkpt>
      <trkpt lat="44.49443" lon="1.40215">
        <ele>207.4</ele>
        <time>2018-12-05T09:11:43Z</time>
      </trkpt>
      <trkpt lat="44.49445" lon="1.40231">
        <ele>204.8</ele>
        <time>2018-12-05T09:11:43Z</time>
      </trkpt>
      <trkpt lat="44.49452" lon="1.4022">
        <ele>206.8</ele>
        <time>2018-12-05T09:11:43Z</time>
      </trkpt>
      <trkpt lat="44.49455" lon="1.40205">
        <ele>209.5</ele>
        <time>2018-12-05T09:11:43Z</time>
      </trkpt>
      <trkpt lat="44.49471" lon="1.40179">
        <ele>214.9</ele>
        <time>2018-12-05T09:11:43Z</time>
      </trkpt>
      <trkpt lat="44.49487" lon="1.40151">
        <ele>219.7</ele>
        <time>2018-12-05T09:11:43Z</time>
      </trkpt>
      <trkpt lat="44.49502" lon="1.40124">
        <ele>225</ele>
        <time>2018-12-05T09:11:43Z</time>
      </trkpt>
      <trkpt lat="44.49511" lon="1.40107">
        <ele>228.4</ele>
        <time>2018-12-05T09:11:43Z</time>
      </trkpt>
      <trkpt lat="44.49517" lon="1.40126">
        <ele>227.2</ele>
        <time>2018-12-05T09:11:43Z</time>
      </trkpt>
      <trkpt lat="44.49525" lon="1.40121">
        <ele>228.9</ele>
        <time>2018-12-05T09:11:43Z</time>
      </trkpt>
      <trkpt lat="44.49567" lon="1.4014">
        <ele>234.2</ele>
        <time>2018-12-05T09:11:43Z</time>
      </trkpt>
      <trkpt lat="44.4959" lon="1.40175">
        <ele>236.9</ele>
        <time>2018-12-05T09:11:43Z</time>
      </trkpt>
      <trkpt lat="44.49604" lon="1.40229">
        <ele>237.9</ele>
        <time>2018-12-05T09:11:43Z</time>
      </trkpt>
      <trkpt lat="44.49619" lon="1.40288">
        <ele>239.1</ele>
        <time>2018-12-05T09:11:43Z</time>
      </trkpt>
      <trkpt lat="44.49639" lon="1.40327">
        <ele>244.5</ele>
        <time>2018-12-05T09:11:43Z</time>
      </trkpt>
      <trkpt lat="44.4965" lon="1.40358">
        <ele>248.7</ele>
        <time>2018-12-05T09:11:43Z</time>
      </trkpt>
      <trkpt lat="44.49638" lon="1.40359">
        <ele>243.6</ele>
        <time>2018-12-05T09:11:43Z</time>
      </trkpt>
      <trkpt lat="44.49621" lon="1.40337">
        <ele>236.5</ele>
        <time>2018-12-05T09:11:43Z</time>
      </trkpt>
      <trkpt lat="44.49593" lon="1.40315">
        <ele>226.2</ele>
        <time>2018-12-05T09:11:43Z</time>
      </trkpt>
      <trkpt lat="44.49568" lon="1.40283">
        <ele>221.3</ele>
        <time>2018-12-05T09:11:43Z</time>
      </trkpt>
      <trkpt lat="44.49563" lon="1.40291">
        <ele>218.3</ele>
        <time>2018-12-05T09:11:43Z</time>
      </trkpt>
      <trkpt lat="44.49585" lon="1.40367">
        <ele>220.7</ele>
        <time>2018-12-05T09:11:43Z</time>
      </trkpt>
      <trkpt lat="44.49559" lon="1.40385">
        <ele>210.7</ele>
        <time>2018-12-05T09:11:43Z</time>
      </trkpt>
      <trkpt lat="44.49537" lon="1.40422">
        <ele>202.9</ele>
        <time>2018-12-05T09:11:43Z</time>
      </trkpt>
      <trkpt lat="44.4952" lon="1.40477">
        <ele>197.8</ele>
        <time>2018-12-05T09:11:43Z</time>
      </trkpt>
      <trkpt lat="44.49511" lon="1.40543">
        <ele>186.1</ele>
        <time>2018-12-05T09:11:43Z</time>
      </trkpt>
      <trkpt lat="44.49493" lon="1.40519">
        <ele>184.9</ele>
        <time>2018-12-05T09:11:43Z</time>
      </trkpt>
      <trkpt lat="44.49492" lon="1.40465">
        <ele>187.6</ele>
        <time>2018-12-05T09:11:43Z</time>
      </trkpt>
      <trkpt lat="44.49508" lon="1.40388">
        <ele>191.1</ele>
        <time>2018-12-05T09:11:43Z</time>
      </trkpt>
      <trkpt lat="44.49494" lon="1.40378">
        <ele>186.3</ele>
        <time>2018-12-05T09:11:43Z</time>
      </trkpt>
      <trkpt lat="44.49477" lon="1.40384">
        <ele>182.4</ele>
        <time>2018-12-05T09:11:43Z</time>
      </trkpt>
      <trkpt lat="44.49446" lon="1.40448">
        <ele>172.1</ele>
        <time>2018-12-05T09:11:43Z</time>
      </trkpt>
      <trkpt lat="44.49413" lon="1.40514">
        <ele>157.4</ele>
        <time>2018-12-05T09:11:43Z</time>
      </trkpt>
      <trkpt lat="44.49382" lon="1.40548">
        <ele>146.1</ele>
        <time>2018-12-05T09:11:43Z</time>
      </trkpt>
      <trkpt lat="44.49356" lon="1.4056">
        <ele>138.1</ele>
        <time>2018-12-05T09:11:43Z</time>
      </trkpt>
      <trkpt lat="44.49294" lon="1.40557">
        <ele>130.6</ele>
        <time>2018-12-05T09:11:43Z</time>
      </trkpt>
      <trkpt lat="44.49366" lon="1.40588">
        <ele>135.3</ele>
        <time>2018-12-05T09:11:43Z</time>
      </trkpt>
      <trkpt lat="44.4944" lon="1.40621">
        <ele>144.1</ele>
        <time>2018-12-05T09:11:43Z</time>
      </trkpt>
      <trkpt lat="44.49515" lon="1.40658">
        <ele>151</ele>
        <time>2018-12-05T09:11:43Z</time>
      </trkpt>
      <trkpt lat="44.49573" lon="1.40702">
        <ele>159.3</ele>
        <time>2018-12-05T09:11:43Z</time>
      </trkpt>
      <trkpt lat="44.49597" lon="1.40742">
        <ele>155.5</ele>
        <time>2018-12-05T09:11:43Z</time>
      </trkpt>
      <trkpt lat="44.49636" lon="1.40781">
        <ele>160.3</ele>
        <time>2018-12-05T09:11:43Z</time>
      </trkpt>
      <trkpt lat="44.49654" lon="1.40824">
        <ele>155.8</ele>
        <time>2018-12-05T09:11:43Z</time>
      </trkpt>
      <trkpt lat="44.49662" lon="1.40885">
        <ele>145.6</ele>
        <time>2018-12-05T09:11:43Z</time>
      </trkpt>
      <trkpt lat="44.49668" lon="1.40933">
        <ele>140.2</ele>
        <time>2018-12-05T09:11:43Z</time>
      </trkpt>
      <trkpt lat="44.49693" lon="1.40996">
        <ele>148.9</ele>
        <time>2018-12-05T09:11:43Z</time>
      </trkpt>
      <trkpt lat="44.49718" lon="1.41064">
        <ele>161.7</ele>
        <time>2018-12-05T09:11:43Z</time>
      </trkpt>
      <trkpt lat="44.49741" lon="1.4115">
        <ele>160.6</ele>
        <time>2018-12-05T09:11:43Z</time>
      </trkpt>
      <trkpt lat="44.49758" lon="1.41197">
        <ele>153.4</ele>
        <time>2018-12-05T09:11:43Z</time>
      </trkpt>
      <trkpt lat="44.49802" lon="1.41239">
        <ele>145.2</ele>
        <time>2018-12-05T09:11:43Z</time>
      </trkpt>
      <trkpt lat="44.4984" lon="1.41272">
        <ele>146.3</ele>
        <time>2018-12-05T09:11:43Z</time>
      </trkpt>
      <trkpt lat="44.49871" lon="1.41264">
        <ele>150</ele>
        <time>2018-12-05T09:11:43Z</time>
      </trkpt>
      <trkpt lat="44.49914" lon="1.41233">
        <ele>152.6</ele>
        <time>2018-12-05T09:11:43Z</time>
      </trkpt>
      <trkpt lat="44.4996" lon="1.41201">
        <ele>153.9</ele>
        <time>2018-12-05T09:11:43Z</time>
      </trkpt>
      <trkpt lat="44.50011" lon="1.41175">
        <ele>153.2</ele>
        <time>2018-12-05T09:11:43Z</time>
      </trkpt>
      <trkpt lat="44.50054" lon="1.41161">
        <ele>155.8</ele>
        <time>2018-12-05T09:11:43Z</time>
      </trkpt>
      <trkpt lat="44.50101" lon="1.41158">
        <ele>162.1</ele>
        <time>2018-12-05T09:11:43Z</time>
      </trkpt>
      <trkpt lat="44.50147" lon="1.41171">
        <ele>172.9</ele>
        <time>2018-12-05T09:11:43Z</time>
      </trkpt>
      <trkpt lat="44.50192" lon="1.41198">
        <ele>178.6</ele>
        <time>2018-12-05T09:11:43Z</time>
      </trkpt>
      <trkpt lat="44.50231" lon="1.4123">
        <ele>177.6</ele>
        <time>2018-12-05T09:11:43Z</time>
      </trkpt>
      <trkpt lat="44.5027" lon="1.41275">
        <ele>171.4</ele>
        <time>2018-12-05T09:11:43Z</time>
      </trkpt>
      <trkpt lat="44.50329" lon="1.41302">
        <ele>169.1</ele>
        <time>2018-12-05T09:11:43Z</time>
      </trkpt>
      <trkpt lat="44.50403" lon="1.41309">
        <ele>169.7</ele>
        <time>2018-12-05T09:11:43Z</time>
      </trkpt>
      <trkpt lat="44.50452" lon="1.41317">
        <ele>176</ele>
        <time>2018-12-05T09:11:43Z</time>
      </trkpt>
      <trkpt lat="44.50497" lon="1.41367">
        <ele>187.1</ele>
        <time>2018-12-05T09:11:43Z</time>
      </trkpt>
      <trkpt lat="44.50536" lon="1.41455">
        <ele>198.1</ele>
        <time>2018-12-05T09:11:43Z</time>
      </trkpt>
      <trkpt lat="44.50569" lon="1.41553">
        <ele>209</ele>
        <time>2018-12-05T09:11:43Z</time>
      </trkpt>
      <trkpt lat="44.50592" lon="1.41672">
        <ele>210.6</ele>
        <time>2018-12-05T09:11:43Z</time>
      </trkpt>
      <trkpt lat="44.50613" lon="1.41796">
        <ele>206.9</ele>
        <time>2018-12-05T09:11:43Z</time>
      </trkpt>
      <trkpt lat="44.50634" lon="1.41905">
        <ele>202.1</ele>
        <time>2018-12-05T09:11:43Z</time>
      </trkpt>
      <trkpt lat="44.5062" lon="1.4197">
        <ele>202.9</ele>
        <time>2018-12-05T09:11:43Z</time>
      </trkpt>
      <trkpt lat="44.50626" lon="1.42034">
        <ele>206.9</ele>
        <time>2018-12-05T09:11:43Z</time>
      </trkpt>
      <trkpt lat="44.50598" lon="1.42096">
        <ele>211.1</ele>
        <time>2018-12-05T09:11:43Z</time>
      </trkpt>
      <trkpt lat="44.50583" lon="1.42159">
        <ele>215.5</ele>
        <time>2018-12-05T09:11:43Z</time>
      </trkpt>
      <trkpt lat="44.50583" lon="1.42208">
        <ele>224.3</ele>
        <time>2018-12-05T09:11:43Z</time>
      </trkpt>
      <trkpt lat="44.50611" lon="1.42248">
        <ele>228.6</ele>
        <time>2018-12-05T09:11:43Z</time>
      </trkpt>
      <trkpt lat="44.5066" lon="1.42297">
        <ele>233.7</ele>
        <time>2018-12-05T09:11:43Z</time>
      </trkpt>
      <trkpt lat="44.5071" lon="1.42352">
        <ele>242.8</ele>
        <time>2018-12-05T09:11:43Z</time>
      </trkpt>
      <trkpt lat="44.50759" lon="1.42406">
        <ele>253.1</ele>
        <time>2018-12-05T09:11:43Z</time>
      </trkpt>
      <trkpt lat="44.50817" lon="1.42435">
        <ele>252.8</ele>
        <time>2018-12-05T09:11:43Z</time>
      </trkpt>
      <trkpt lat="44.5085" lon="1.4246">
        <ele>257.6</ele>
        <time>2018-12-05T09:11:43Z</time>
      </trkpt>
      <trkpt lat="44.50876" lon="1.42493">
        <ele>264</ele>
        <time>2018-12-05T09:11:43Z</time>
      </trkpt>
      <trkpt lat="44.50904" lon="1.42528">
        <ele>269.8</ele>
        <time>2018-12-05T09:11:43Z</time>
      </trkpt>
      <trkpt lat="44.50934" lon="1.4256">
        <ele>279.1</ele>
        <time>2018-12-05T09:11:43Z</time>
      </trkpt>
      <trkpt lat="44.5096" lon="1.42581">
        <ele>285.8</ele>
        <time>2018-12-05T09:11:43Z</time>
      </trkpt>
      <trkpt lat="44.51006" lon="1.42579">
        <ele>289.8</ele>
        <time>2018-12-05T09:11:43Z</time>
      </trkpt>
      <trkpt lat="44.51056" lon="1.42584">
        <ele>291.4</ele>
        <time>2018-12-05T09:11:43Z</time>
      </trkpt>
      <trkpt lat="44.51106" lon="1.42584">
        <ele>290.3</ele>
        <time>2018-12-05T09:11:43Z</time>
      </trkpt>
      <trkpt lat="44.51163" lon="1.4258">
        <ele>285.9</ele>
        <time>2018-12-05T09:11:43Z</time>
      </trkpt>
      <trkpt lat="44.5115" lon="1.42445">
        <ele>282.5</ele>
        <time>2018-12-05T09:11:43Z</time>
      </trkpt>
      <trkpt lat="44.51204" lon="1.42279">
        <ele>275.3</ele>
        <time>2018-12-05T09:11:43Z</time>
      </trkpt>
      <trkpt lat="44.51245" lon="1.42152">
        <ele>277.9</ele>
        <time>2018-12-05T09:11:43Z</time>
      </trkpt>
      <trkpt lat="44.51228" lon="1.42146">
        <ele>279.8</ele>
        <time>2018-12-05T09:11:43Z</time>
      </trkpt>
      <trkpt lat="44.51207" lon="1.42054">
        <ele>280.3</ele>
        <time>2018-12-05T09:11:43Z</time>
      </trkpt>
      <trkpt lat="44.51184" lon="1.41961">
        <ele>278.4</ele>
        <time>2018-12-05T09:11:43Z</time>
      </trkpt>
      <trkpt lat="44.51173" lon="1.41888">
        <ele>276.9</ele>
        <time>2018-12-05T09:11:43Z</time>
      </trkpt>
      <trkpt lat="44.51178" lon="1.41802">
        <ele>274.9</ele>
        <time>2018-12-05T09:11:43Z</time>
      </trkpt>
      <trkpt lat="44.51193" lon="1.41666">
        <ele>276.4</ele>
        <time>2018-12-05T09:11:43Z</time>
      </trkpt>
      <trkpt lat="44.51213" lon="1.41525">
        <ele>270.5</ele>
        <time>2018-12-05T09:11:43Z</time>
      </trkpt>
      <trkpt lat="44.51232" lon="1.4138">
        <ele>262.9</ele>
        <time>2018-12-05T09:11:43Z</time>
      </trkpt>
      <trkpt lat="44.51243" lon="1.41207">
        <ele>256.1</ele>
        <time>2018-12-05T09:11:43Z</time>
      </trkpt>
      <trkpt lat="44.51254" lon="1.41132">
        <ele>255.9</ele>
        <time>2018-12-05T09:11:43Z</time>
      </trkpt>
      <trkpt lat="44.51265" lon="1.41056">
        <ele>255</ele>
        <time>2018-12-05T09:11:43Z</time>
      </trkpt>
      <trkpt lat="44.51266" lon="1.40959">
        <ele>252.8</ele>
        <time>2018-12-05T09:11:43Z</time>
      </trkpt>
      <trkpt lat="44.51261" lon="1.40848">
        <ele>251</ele>
        <time>2018-12-05T09:11:43Z</time>
      </trkpt>
      <trkpt lat="44.51252" lon="1.40727">
        <ele>250.7</ele>
        <time>2018-12-05T09:11:43Z</time>
      </trkpt>
      <trkpt lat="44.51248" lon="1.40607">
        <ele>252.3</ele>
        <time>2018-12-05T09:11:43Z</time>
      </trkpt>
      <trkpt lat="44.51251" lon="1.40495">
        <ele>254</ele>
        <time>2018-12-05T09:11:43Z</time>
      </trkpt>
      <trkpt lat="44.51151" lon="1.40514">
        <ele>263.2</ele>
        <time>2018-12-05T09:11:43Z</time>
      </trkpt>
      <trkpt lat="44.51058" lon="1.40535">
        <ele>267.9</ele>
        <time>2018-12-05T09:11:43Z</time>
      </trkpt>
      <trkpt lat="44.50966" lon="1.4056">
        <ele>272.4</ele>
        <time>2018-12-05T09:11:43Z</time>
      </trkpt>
      <trkpt lat="44.50899" lon="1.4058">
        <ele>274.9</ele>
        <time>2018-12-05T09:11:43Z</time>
      </trkpt>
      <trkpt lat="44.50871" lon="1.4057">
        <ele>275.9</ele>
        <time>2018-12-05T09:11:43Z</time>
      </trkpt>
      <trkpt lat="44.5084" lon="1.40574">
        <ele>277.1</ele>
        <time>2018-12-05T09:11:43Z</time>
      </trkpt>
      <trkpt lat="44.50782" lon="1.40595">
        <ele>279.7</ele>
        <time>2018-12-05T09:11:43Z</time>
      </trkpt>
      <trkpt lat="44.50721" lon="1.40626">
        <ele>284.4</ele>
        <time>2018-12-05T09:11:43Z</time>
      </trkpt>
      <trkpt lat="44.50666" lon="1.40636">
        <ele>288.8</ele>
        <time>2018-12-05T09:11:43Z</time>
      </trkpt>
      <trkpt lat="44.50593" lon="1.40635">
        <ele>292.1</ele>
        <time>2018-12-05T09:11:43Z</time>
      </trkpt>
      <trkpt lat="44.50514" lon="1.40623">
        <ele>297.7</ele>
        <time>2018-12-05T09:11:43Z</time>
      </trkpt>
      <trkpt lat="44.50481" lon="1.40603">
        <ele>299</ele>
        <time>2018-12-05T09:11:43Z</time>
      </trkpt>
      <trkpt lat="44.50449" lon="1.40572">
        <ele>298.5</ele>
        <time>2018-12-05T09:11:43Z</time>
      </trkpt>
      <trkpt lat="44.50416" lon="1.40541">
        <ele>294.9</ele>
        <time>2018-12-05T09:11:43Z</time>
      </trkpt>
      <trkpt lat="44.50391" lon="1.40515">
        <ele>290.9</ele>
        <time>2018-12-05T09:11:43Z</time>
      </trkpt>
      <trkpt lat="44.50329" lon="1.40503">
        <ele>286.1</ele>
        <time>2018-12-05T09:11:43Z</time>
      </trkpt>
      <trkpt lat="44.50306" lon="1.40501">
        <ele>286.3</ele>
        <time>2018-12-05T09:11:43Z</time>
      </trkpt>
      <trkpt lat="44.50265" lon="1.40524">
        <ele>284.3</ele>
        <time>2018-12-05T09:11:43Z</time>
      </trkpt>
      <trkpt lat="44.50216" lon="1.4056">
        <ele>281.9</ele>
        <time>2018-12-05T09:11:43Z</time>
      </trkpt>
      <trkpt lat="44.50169" lon="1.40598">
        <ele>281</ele>
        <time>2018-12-05T09:11:43Z</time>
      </trkpt>
      <trkpt lat="44.50123" lon="1.40574">
        <ele>285</ele>
        <time>2018-12-05T09:11:43Z</time>
      </trkpt>
      <trkpt lat="44.50105" lon="1.40548">
        <ele>284.2</ele>
        <time>2018-12-05T09:11:43Z</time>
      </trkpt>
      <trkpt lat="44.50136" lon="1.40503">
        <ele>286</ele>
        <time>2018-12-05T09:11:43Z</time>
      </trkpt>
      <trkpt lat="44.50175" lon="1.40455">
        <ele>283.1</ele>
        <time>2018-12-05T09:11:43Z</time>
      </trkpt>
      <trkpt lat="44.50215" lon="1.40407">
        <ele>277.4</ele>
        <time>2018-12-05T09:11:43Z</time>
      </trkpt>
      <trkpt lat="44.50258" lon="1.40363">
        <ele>268.2</ele>
        <time>2018-12-05T09:11:43Z</time>
      </trkpt>
      <trkpt lat="44.50334" lon="1.40291">
        <ele>240.8</ele>
        <time>2018-12-05T09:11:43Z</time>
      </trkpt>
      <trkpt lat="44.50324" lon="1.40091">
        <ele>228.5</ele>
        <time>2018-12-05T09:11:43Z</time>
      </trkpt>
      <trkpt lat="44.50308" lon="1.39896">
        <ele>228</ele>
        <time>2018-12-05T09:11:43Z</time>
      </trkpt>
      <trkpt lat="44.50291" lon="1.39806">
        <ele>225.6</ele>
        <time>2018-12-05T09:11:43Z</time>
      </trkpt>
      <trkpt lat="44.50248" lon="1.39712">
        <ele>231</ele>
        <time>2018-12-05T09:11:43Z</time>
      </trkpt>
      <trkpt lat="44.50192" lon="1.39634">
        <ele>224.4</ele>
        <time>2018-12-05T09:11:43Z</time>
      </trkpt>
      <trkpt lat="44.50135" lon="1.39555">
        <ele>212</ele>
        <time>2018-12-05T09:11:43Z</time>
      </trkpt>
      <trkpt lat="44.50094" lon="1.39475">
        <ele>198.8</ele>
        <time>2018-12-05T09:11:43Z</time>
      </trkpt>
      <trkpt lat="44.50074" lon="1.39424">
        <ele>189.3</ele>
        <time>2018-12-05T09:11:43Z</time>
      </trkpt>
      <trkpt lat="44.50016" lon="1.39339">
        <ele>173.8</ele>
        <time>2018-12-05T09:11:43Z</time>
      </trkpt>
      <trkpt lat="44.49957" lon="1.39274">
        <ele>164.9</ele>
        <time>2018-12-05T09:11:43Z</time>
      </trkpt>
      <trkpt lat="44.49901" lon="1.39223">
        <ele>159.8</ele>
        <time>2018-12-05T09:11:43Z</time>
      </trkpt>
      <trkpt lat="44.49887" lon="1.39271">
        <ele>164.9</ele>
        <time>2018-12-05T09:11:43Z</time>
      </trkpt>
      <trkpt lat="44.49879" lon="1.39344">
        <ele>172.1</ele>
        <time>2018-12-05T09:11:43Z</time>
      </trkpt>
      <trkpt lat="44.49884" lon="1.39425">
        <ele>175.8</ele>
        <time>2018-12-05T09:11:43Z</time>
      </trkpt>
      <trkpt lat="44.49885" lon="1.39504">
        <ele>176.4</ele>
        <time>2018-12-05T09:11:43Z</time>
      </trkpt>
      <trkpt lat="44.49871" lon="1.39565">
        <ele>176.1</ele>
        <time>2018-12-05T09:11:43Z</time>
      </trkpt>
      <trkpt lat="44.49848" lon="1.39556">
        <ele>174.8</ele>
        <time>2018-12-05T09:11:43Z</time>
      </trkpt>
      <trkpt lat="44.49821" lon="1.39589">
        <ele>176.2</ele>
        <time>2018-12-05T09:11:43Z</time>
      </trkpt>
      <trkpt lat="44.49796" lon="1.39639">
        <ele>181.6</ele>
        <time>2018-12-05T09:11:43Z</time>
      </trkpt>
      <trkpt lat="44.49774" lon="1.39676">
        <ele>185.2</ele>
        <time>2018-12-05T09:11:43Z</time>
      </trkpt>
      <trkpt lat="44.49767" lon="1.39733">
        <ele>189.6</ele>
        <time>2018-12-05T09:11:43Z</time>
      </trkpt>
      <trkpt lat="44.49727" lon="1.39758">
        <ele>190.7</ele>
        <time>2018-12-05T09:11:43Z</time>
      </trkpt>
      <trkpt lat="44.49686" lon="1.39768">
        <ele>189.8</ele>
        <time>2018-12-05T09:11:43Z</time>
      </trkpt>
      <trkpt lat="44.49654" lon="1.39785">
        <ele>192.4</ele>
        <time>2018-12-05T09:11:43Z</time>
      </trkpt>
      <trkpt lat="44.49607" lon="1.39832">
        <ele>200.7</ele>
        <time>2018-12-05T09:11:43Z</time>
      </trkpt>
      <trkpt lat="44.49589" lon="1.39845">
        <ele>203.7</ele>
        <time>2018-12-05T09:11:43Z</time>
      </trkpt>
      <trkpt lat="44.4956" lon="1.39847">
        <ele>203.2</ele>
        <time>2018-12-05T09:11:43Z</time>
      </trkpt>
      <trkpt lat="44.49574" lon="1.39809">
        <ele>200.6</ele>
        <time>2018-12-05T09:11:43Z</time>
      </trkpt>
      <trkpt lat="44.49614" lon="1.39731">
        <ele>195.7</ele>
        <time>2018-12-05T09:11:43Z</time>
      </trkpt>
      <trkpt lat="44.49653" lon="1.39653">
        <ele>194.9</ele>
        <time>2018-12-05T09:11:43Z</time>
      </trkpt>
      <trkpt lat="44.49667" lon="1.39584">
        <ele>195.9</ele>
        <time>2018-12-05T09:11:43Z</time>
      </trkpt>
    </trkseg>
  </trk>
</gpx>